[[{"header":{"parameterUnit":"m.s-1","parameterCategory":2,"la1":30.2991,"la2":30.254,"lo1":-89.0895,"lo2":-89.0444,"dy":0.0017,"dx":0.0017,"nx":28,"ny":28,"refTime":"2023-09-12T03:00:00:Z","depth":"0","parameterNumber":2,"parameterNumberName":"U-component_of_CURRENTS"},"data":[0,0,0,0,0,0,0,0,0,0,0,0,0,0,0,0,0,0,0,0,0,0,0,0,0,0,0,0,0,0,0,0,0,0,0,0,0,0,0,0,0,0,0,0,0,0,0,0,0,0,0,0,0,0,0,0,0,0,0.2489,0.2489,0,0.2467,0.2467,0.2466,0.244,0.244,0.244,0.244,0.2425,0.2425,0.2424,0,0,0,0,0,0,0,0,0,0,0,0,0,0.2493,0.2493,0.2489,0.2489,0.2489,0.2467,0.2466,0.2466,0.244,0.244,0.244,0.244,0.2425,0.2425,0.2424,0,0,0,0,0,0,0,0,0,0,0,0,0,0.2481,0.2493,0.2489,0.2475,0.2474,0.2467,0.2466,0.2466,0.244,0.244,0.244,0.2439,0.2425,0.2425,0.2424,0.2427,0,0,0.2423,0.2423,0,0,0,0,0,0,0,0,0.2481,0.248,0.2477,0.2476,0.2475,0.2458,0.2462,0.2454,0.244,0.245,0.244,0.2439,0.2439,0.2437,0.243,0.2426,0.2426,0.2423,0.2423,0.2423,0.2423,0,0,0,0,0,0,0,0.2482,0.2481,0.2478,0.2477,0.2476,0.2465,0.2463,0.246,0.2444,0.2449,0.2448,0.245,0.2437,0.243,0.2429,0.2425,0.2423,0.2423,0.2423,0.2422,0.2469,0.247,0,0,0,0,0,0,0.2491,0.2482,0.2479,0.2477,0.248,0.2465,0.2463,0.2462,0.2444,0.2442,0.245,0.2449,0.2431,0.243,0.2429,0.2484,0.2423,0.2422,0.2422,0.2467,0.2469,0.247,0,0,0,0,0,0,0.2491,0.2491,0.2479,0.2481,0.2479,0.2466,0.2465,0.2462,0.246,0.2445,0.2442,0.2453,0.2431,0.2429,0.2447,0.2481,0.2422,0.2422,0.2465,0.2468,0.247,0.256,0,0,0,0,0,0,0.2491,0.2491,0.2493,0.2482,0.248,0.2494,0.2465,0.2461,0.2462,0.246,0.2446,0.2444,0.243,0.2448,0.2446,0.2479,0.2422,0.2464,0.2466,0.2469,0.2555,0.2565,0.2573,0,0,0,0,0,0.2492,0.2501,0.2493,0.2493,0.2483,0.2495,0.2494,0.2481,0.2463,0.2475,0.2467,0.2445,0.2464,0.2449,0.2447,0.248,0.2462,0.2466,0.2469,0.2551,0.2563,0.2573,0,0,0,0,0,0,0.2503,0.2499,0.249,0.2497,0.2504,0.2492,0.2502,0.2487,0.2487,0.2488,0.2463,0.2461,0.2497,0.2472,0.2455,0.2501,0.246,0.2463,0.2523,0.2534,0.2543,0.2557,0.2421,0,0,0,0,0,0.2507,0.2514,0.2511,0.2519,0.2526,0.2513,0.2514,0.251,0.2508,0.2507,0.2499,0.2494,0.2508,0.2506,0.2516,0.2532,0.2536,0.2552,0.2561,0.2569,0.2579,0.2626,0.2641,0.2481,0.2481,0.2481,0,0,0.2511,0.2514,0.2515,0.2523,0.2525,0.2543,0.2513,0.253,0.2548,0.2507,0.2532,0.2534,0.2523,0.2556,0.2567,0.2536,0.2618,0.2573,0.258,0.2586,0.2631,0.2647,0.266,0.2483,0.2483,0.2483,0,0,0.2528,0.2532,0.2541,0.2556,0.257,0.2572,0.258,0.2581,0.2588,0.2612,0.2598,0.2622,0.262,0.2632,0.2632,0.2694,0.2675,0.2688,0.2734,0.2779,0.2793,0.2805,0.2837,0.2852,0.2679,0.2679,0.2679,0,0.2535,0.2542,0.2549,0.257,0.2585,0.2589,0.261,0.2625,0.2633,0.265,0.2635,0.2667,0.2663,0.2705,0.2729,0.2718,0.2731,0.2694,0.2793,0.2805,0.2816,0.2846,0.286,0.2684,0.2684,0.2683,0.2683,0,0.2555,0.2568,0.2585,0.261,0.2634,0.2659,0.2684,0.2714,0.2721,0.273,0.2781,0.2781,0.2795,0.2802,0.2784,0.2856,0.2837,0.2812,0.2768,0.2838,0.2864,0.2878,0.2691,0.2689,0.2688,0.2687,0,0,0.2542,0.2587,0.259,0.2613,0.2657,0.268,0.2735,0.278,0.2819,0.2838,0.2881,0.2916,0.2913,0.2914,0.29,0.2933,0.3028,0.2904,0.2905,0.2942,0.3125,0.2953,0.2951,0.3019,0.3022,0.3024,0.3115,0,0.2552,0.2592,0.2615,0.2667,0.2691,0.2734,0.2786,0.2835,0.2874,0.2924,0.2942,0.2982,0.2955,0.2967,0.3003,0.3022,0.3066,0.3005,0.3046,0.3048,0.2891,0.2962,0.2748,0.2796,0.3128,0.313,0.3132,0,0.2547,0.2581,0.2624,0.2697,0.2714,0.2753,0.2844,0.2893,0.2973,0.3002,0.3045,0.3058,0.3115,0.3079,0.316,0.312,0.3139,0.3149,0.3152,0.2969,0.2901,0.2778,0.2808,0.274,0.3152,0.3151,0.3149,0,0.2519,0.2583,0.262,0.2644,0.2731,0.2771,0.2825,0.2913,0.2968,0.3054,0.3095,0.3152,0.3175,0.3225,0.3233,0.3215,0.331,0.3285,0.3155,0.3143,0.2955,0.292,0.2923,0.3364,0.3364,0.3364,0.3364,0,0.251,0.2541,0.2612,0.2637,0.2705,0.2767,0.2851,0.2916,0.3007,0.3068,0.3128,0.3172,0.3215,0.3257,0.3277,0.3242,0.3349,0.318,0.3159,0.2977,0.2944,0.2867,0.2848,0.3367,0.3367,0.3366,0.3365,0,0.2475,0.2516,0.2569,0.266,0.2691,0.2744,0.286,0.2923,0.3011,0.3091,0.312,0.3204,0.3236,0.3263,0.3326,0.3264,0.3153,0.3241,0.3007,0.2955,0.271,0.2702,0.2561,0.2502,0.3111,0.3107,0.3104,0,0.2462,0.2485,0.2575,0.2619,0.2663,0.2747,0.2807,0.291,0.2973,0.3098,0.313,0.3185,0.3173,0.3182,0.3097,0.307,0.3034,0.2861,0.2773,0.2673,0.2654,0.2564,0.2522,0.2584,0.2577,0.2571,0.2566,0,0.2454,0.2483,0.253,0.2607,0.2672,0.2737,0.2823,0.286,0.297,0.3019,0.3051,0.3047,0.3004,0.283,0.2768,0.2739,0.2661,0.2734,0.2711,0.2299,0.2126,0.2064,0.2559,0.2514,0.252,0.2523,0.2526,0.2528,0.2443,0.2474,0.2531,0.2589,0.2656,0.2688,0.2684,0.2754,0.279,0.2772,0.2883,0.2766,0.2628,0.247,0.2432,0.22,0.2283,0.2092,0.2116,0.2055,0.19,0.2256,0.2123,0.2126,0.2128,0.2131,0.2132,0,0.2399,0.2444,0.2516,0.2558,0.2563,0.262,0.2659,0.2599,0.2544,0.2542,0.2498,0.2282,0.2083,0.1985,0.1745,0.1613,0.1564,0.1571,0.1445,0.1461,0.1846,0.1722,0.1397,0.1397,0.1397,0.1397,0.1397,0.1397,0.2387,0.241,0.2435,0.2425,0.2443,0.2381,0.2348,0.2266,0.2221,0.2012,0.1842,0.1787,0.1694,0.1468,0.1269,0.1236,0.1183,0.1014,0.1151,0.1461,0.1514,0.1564,0.1445,0.1067,0.1067,0.065,0.0647,0.0644]},{"header":{"parameterUnit":"m.s-1","parameterCategory":2,"la1":30.2991,"la2":30.254,"lo1":-89.0895,"lo2":-89.0444,"dy":0.0017,"dx":0.0017,"nx":28,"ny":28,"refTime":"2023-09-12T03:00:00:Z","depth":"0","parameterNumber":3,"parameterNumberName":"V-component_of_CURRENTS"},"data":[0,0,0,0,0,0,0,0,0,0,0,0,0,0,0,0,0,0,0,0,0,0,0,0,0,0,0,0,0,0,0,0,0,0,0,0,0,0,0,0,0,0,0,0,0,0,0,0,0,0,0,0,0,0,0,0,0,0,0.0306,0.0306,0,0.0321,0.0321,0.0321,0.0325,0.0325,0.0325,0.0325,0.0328,0.0328,0.0328,0,0,0,0,0,0,0,0,0,0,0,0,0,0.0275,0.0276,0.0306,0.0306,0.0306,0.0321,0.0321,0.0321,0.0325,0.0325,0.0325,0.0325,0.0328,0.0328,0.0328,0,0,0,0,0,0,0,0,0,0,0,0,0,0.0289,0.0276,0.0306,0.031,0.031,0.0321,0.0321,0.0321,0.0325,0.0325,0.0325,0.0325,0.0328,0.0328,0.0328,0.0333,0,0,0.0329,0.0329,0,0,0,0,0,0,0,0,0.0289,0.029,0.0309,0.031,0.031,0.0321,0.0311,0.0324,0.0325,0.032,0.0325,0.0325,0.0324,0.0325,0.0328,0.0333,0.0333,0.0329,0.0329,0.0329,0.0329,0,0,0,0,0,0,0,0.0288,0.029,0.0312,0.0309,0.031,0.0309,0.0311,0.0314,0.0323,0.032,0.0321,0.0322,0.0324,0.0328,0.0328,0.0333,0.0329,0.0329,0.0329,0.0329,0.0354,0.0355,0,0,0,0,0,0,0.0286,0.0289,0.0312,0.0312,0.0299,0.0309,0.0312,0.0318,0.0323,0.0324,0.0322,0.0322,0.0328,0.0328,0.0328,0.0356,0.0329,0.0329,0.0329,0.0354,0.0354,0.0355,0,0,0,0,0,0,0.0285,0.0288,0.0311,0.03,0.0303,0.031,0.0317,0.0318,0.0323,0.0324,0.0325,0.0326,0.0328,0.0328,0.0336,0.0355,0.0329,0.033,0.0353,0.0354,0.0355,0.0397,0,0,0,0,0,0,0.0284,0.0288,0.0292,0.0301,0.0304,0.0325,0.0317,0.0318,0.0324,0.0324,0.0328,0.0328,0.0328,0.0335,0.0336,0.0355,0.033,0.0352,0.0354,0.0354,0.0395,0.0399,0.0403,0,0,0,0,0,0.0283,0.0296,0.0292,0.0295,0.031,0.0325,0.0327,0.0331,0.0324,0.0333,0.0332,0.0328,0.0342,0.0336,0.0337,0.0356,0.0352,0.0353,0.0354,0.0394,0.0399,0.0403,0,0,0,0,0,0,0.0286,0.0298,0.0294,0.0309,0.0317,0.0326,0.0336,0.0332,0.0339,0.0338,0.0333,0.0334,0.035,0.0343,0.0337,0.0365,0.0347,0.0348,0.0376,0.0381,0.0385,0.0416,0.033,0,0,0,0,0,0.0288,0.0301,0.0307,0.032,0.0325,0.0328,0.0333,0.0336,0.0342,0.0344,0.0345,0.0347,0.0356,0.0359,0.0365,0.0378,0.0384,0.039,0.0394,0.0398,0.0423,0.0444,0.0453,0.0359,0.0359,0.0359,0,0,0.0291,0.03,0.0306,0.0321,0.0328,0.0346,0.0332,0.0346,0.0363,0.0343,0.0365,0.0361,0.0362,0.0381,0.0387,0.0378,0.0424,0.0399,0.0402,0.0426,0.0446,0.0456,0.0464,0.036,0.0359,0.0359,0,0,0.0311,0.0314,0.0332,0.0343,0.0355,0.0361,0.0365,0.0374,0.038,0.0395,0.0389,0.0403,0.0403,0.042,0.0425,0.0454,0.0444,0.0442,0.0489,0.0509,0.0518,0.0525,0.053,0.0538,0.0444,0.0444,0.0444,0,0.0312,0.0338,0.0339,0.0361,0.0375,0.0369,0.0393,0.0402,0.0411,0.0427,0.0407,0.044,0.0432,0.0476,0.0482,0.0467,0.0466,0.0471,0.0516,0.0524,0.0531,0.0534,0.0542,0.0446,0.0446,0.0446,0.0446,0,0.0348,0.0367,0.0381,0.0407,0.0422,0.0443,0.0453,0.0468,0.0467,0.0479,0.0515,0.0512,0.0537,0.0528,0.0512,0.056,0.0538,0.0519,0.0508,0.0543,0.0544,0.0551,0.045,0.0449,0.0448,0.0448,0,0,0.0355,0.0397,0.0401,0.0425,0.0448,0.0468,0.0498,0.0531,0.0565,0.0571,0.0623,0.0629,0.0631,0.0637,0.0623,0.0636,0.0668,0.0597,0.0597,0.0609,0.07,0.0653,0.0656,0.065,0.0652,0.0653,0.0675,0,0.0382,0.0431,0.0445,0.0495,0.0523,0.0534,0.0566,0.0595,0.0615,0.0663,0.0676,0.0714,0.0671,0.0687,0.0696,0.0684,0.0692,0.0663,0.0659,0.066,0.0619,0.0665,0.0667,0.0684,0.0683,0.0684,0.0685,0,0.0412,0.0445,0.0495,0.0549,0.0563,0.0591,0.0651,0.068,0.0738,0.0755,0.0799,0.0808,0.085,0.0797,0.0813,0.0792,0.0755,0.0734,0.0734,0.0688,0.0628,0.0651,0.0698,0.068,0.0696,0.0695,0.0695,0,0.0428,0.0482,0.0525,0.0543,0.06,0.0628,0.0659,0.0711,0.0759,0.0825,0.0875,0.0908,0.0947,0.0918,0.0872,0.0845,0.0876,0.0832,0.0758,0.0753,0.0756,0.0749,0.0797,0.0844,0.0843,0.0843,0.0843,0,0.0458,0.0497,0.0537,0.0567,0.0626,0.0654,0.0727,0.0759,0.0836,0.0923,0.0929,0.1011,0.0978,0.099,0.092,0.0872,0.0915,0.079,0.0768,0.0767,0.076,0.0744,0.0717,0.0844,0.0844,0.0844,0.0844,0,0.048,0.0502,0.056,0.0618,0.0637,0.0682,0.0769,0.0835,0.0888,0.1008,0.104,0.1107,0.1121,0.1066,0.1032,0.0945,0.0873,0.0853,0.0845,0.0822,0.0715,0.0689,0.0719,0.0713,0.0785,0.0784,0.0784,0,0.0502,0.0531,0.0593,0.063,0.0661,0.0728,0.0787,0.0853,0.0934,0.1078,0.1152,0.1204,0.1263,0.1183,0.1042,0.0921,0.0874,0.082,0.0768,0.0734,0.069,0.0683,0.0676,0.0785,0.0784,0.0784,0.0784,0,0.0549,0.0563,0.0607,0.0679,0.0741,0.0816,0.0906,0.0975,0.1083,0.1188,0.1333,0.1392,0.1329,0.1229,0.104,0.0942,0.081,0.0802,0.079,0.0723,0.07,0.0675,0.0732,0.0779,0.0779,0.078,0.078,0.078,0.0583,0.0615,0.0668,0.0736,0.081,0.0905,0.0977,0.1091,0.1224,0.1386,0.1441,0.1525,0.1384,0.1137,0.1014,0.0777,0.0778,0.07,0.068,0.0683,0.0661,0.0694,0.0694,0.0694,0.0694,0.0694,0.0694,0,0.0623,0.0662,0.0729,0.0813,0.0901,0.093,0.1065,0.115,0.131,0.1443,0.1557,0.1511,0.1343,0.1139,0.0828,0.0692,0.0659,0.0624,0.064,0.0643,0.0701,0.0684,0.0656,0.0656,0.0656,0.0656,0.0656,0.0656,0.065,0.0709,0.0738,0.0874,0.0942,0.1061,0.1136,0.1259,0.1366,0.1497,0.1524,0.154,0.1403,0.0975,0.0719,0.0654,0.0607,0.056,0.0548,0.0602,0.0609,0.0615,0.0596,0.0549,0.0549,0.0522,0.0522,0.0521]}],[{"header":{"parameterUnit":"m.s-1","parameterCategory":2,"la1":30.2991,"la2":30.254,"lo1":-89.0895,"lo2":-89.0444,"dy":0.0017,"dx":0.0017,"nx":28,"ny":28,"refTime":"2023-09-12T03:00:00:Z","depth":"2","parameterNumber":2,"parameterNumberName":"U-component_of_CURRENTS"},"data":[0,0,0,0,0,0,0,0,0,0,0,0,0,0,0,0,0,0,0,0,0,0,0,0,0,0,0,0,0,0,0,0,0,0,0,0,0,0,0,0,0,0,0,0,0,0,0,0,0,0,0,0,0,0,0,0,0,0,0.1957,0.1957,0,0.1949,0.1948,0.1948,0.1962,0.1962,0.1963,0.1964,0.1959,0.1958,0.1958,0,0,0,0,0,0,0,0,0,0,0,0,0,0.1977,0.1976,0.1957,0.1957,0.1957,0.1949,0.1948,0.1948,0.1962,0.1962,0.1963,0.1964,0.1959,0.1958,0.1958,0,0,0,0,0,0,0,0,0,0,0,0,0,0.1967,0.1976,0.1957,0.1963,0.1964,0.1949,0.1948,0.1948,0.1962,0.1962,0.1963,0.1964,0.1959,0.1958,0.1957,0.1935,0,0,0.1954,0.1954,0,0,0,0,0,0,0,0,0.1968,0.1966,0.1962,0.1963,0.1963,0.1958,0.1954,0.1944,0.1961,0.1961,0.1964,0.1965,0.1959,0.1958,0.1953,0.1934,0.1934,0.1954,0.1954,0.1953,0.1953,0,0,0,0,0,0,0,0.1968,0.1967,0.1952,0.1962,0.1963,0.1964,0.1964,0.1952,0.1955,0.1961,0.1963,0.1963,0.1959,0.1954,0.1953,0.1934,0.1954,0.1954,0.1953,0.1953,0.2008,0.201,0,0,0,0,0,0,0.1971,0.1967,0.1953,0.1952,0.1969,0.1963,0.1963,0.1958,0.1955,0.1955,0.1962,0.1964,0.1955,0.1954,0.1953,0.2019,0.1953,0.1952,0.1952,0.2006,0.2008,0.2011,0,0,0,0,0,0,0.1971,0.1969,0.1953,0.1961,0.1959,0.1962,0.1957,0.1957,0.1972,0.1956,0.1957,0.1978,0.1956,0.1954,0.1988,0.2016,0.1952,0.1951,0.2003,0.2007,0.2009,0.2091,0,0,0,0,0,0,0.1972,0.1969,0.1974,0.1961,0.1959,0.1975,0.1956,0.1957,0.197,0.1972,0.1969,0.1968,0.1956,0.199,0.1987,0.2013,0.195,0.2001,0.2005,0.2009,0.2086,0.2097,0.2106,0,0,0,0,0,0.1972,0.1974,0.1974,0.1973,0.1962,0.1976,0.1977,0.198,0.197,0.1992,0.2,0.197,0.2012,0.1991,0.1987,0.2013,0.1999,0.2004,0.2008,0.2082,0.2095,0.2106,0,0,0,0,0,0,0.1983,0.1975,0.1975,0.1974,0.199,0.198,0.199,0.1989,0.2008,0.2011,0.1994,0.1995,0.2035,0.2016,0.1993,0.2044,0.2,0.2005,0.2058,0.207,0.2079,0.208,0.195,0,0,0,0,0,0.1987,0.1989,0.199,0.1994,0.1999,0.1997,0.2002,0.2009,0.2017,0.2026,0.2024,0.2029,0.2046,0.2054,0.206,0.2082,0.2077,0.2098,0.2108,0.2116,0.2117,0.2169,0.2184,0.2026,0.2026,0.2026,0,0,0.1993,0.1988,0.1991,0.1998,0.2001,0.2013,0.2003,0.2021,0.2027,0.2021,0.2037,0.2063,0.2062,0.2099,0.2113,0.2089,0.2158,0.2122,0.213,0.2125,0.2176,0.2191,0.2204,0.2029,0.2028,0.2028,0,0,0.1997,0.2002,0.2004,0.2023,0.2038,0.2038,0.2049,0.2057,0.206,0.2088,0.2092,0.2144,0.2145,0.2168,0.2173,0.2239,0.2212,0.2241,0.2287,0.2339,0.2352,0.2363,0.2368,0.2379,0.2243,0.2243,0.2243,0,0.2007,0.2,0.2012,0.2025,0.2035,0.2051,0.2062,0.2067,0.2089,0.2112,0.2106,0.2173,0.2175,0.2232,0.2266,0.226,0.2274,0.224,0.2352,0.2363,0.2374,0.2375,0.2387,0.2248,0.2247,0.2247,0.2246,0,0.2017,0.2017,0.2024,0.2038,0.206,0.2077,0.209,0.2127,0.2135,0.215,0.2217,0.224,0.2287,0.2302,0.2303,0.2386,0.2366,0.2361,0.2319,0.2394,0.2391,0.2401,0.2254,0.2253,0.2251,0.225,0,0,0.2006,0.2023,0.2026,0.2046,0.2068,0.2099,0.212,0.216,0.22,0.2235,0.2285,0.2339,0.2375,0.2385,0.2403,0.2453,0.254,0.2448,0.2449,0.2447,0.2634,0.2487,0.2483,0.2568,0.257,0.2572,0.2597,0,0.2003,0.202,0.203,0.2069,0.2078,0.2124,0.2144,0.2199,0.2235,0.2297,0.234,0.2403,0.2392,0.2447,0.249,0.254,0.2574,0.2531,0.2564,0.2564,0.2421,0.2493,0.2281,0.2275,0.2607,0.2609,0.261,0,0.1997,0.2007,0.2026,0.2083,0.2097,0.2136,0.2222,0.2257,0.2341,0.2375,0.2451,0.248,0.2566,0.2544,0.2636,0.2618,0.263,0.2651,0.2653,0.2492,0.2437,0.2257,0.2281,0.2627,0.2626,0.2624,0.2623,0,0.198,0.2014,0.203,0.2051,0.211,0.2158,0.2217,0.2296,0.2331,0.2457,0.251,0.2585,0.2635,0.2687,0.2709,0.27,0.2789,0.2774,0.2638,0.2626,0.2436,0.2402,0.2829,0.2829,0.2829,0.2829,0.2829,0,0.1963,0.1987,0.2038,0.2063,0.2111,0.2178,0.2247,0.2331,0.2414,0.2473,0.2564,0.2604,0.2683,0.2723,0.2741,0.2709,0.2809,0.2651,0.2634,0.2455,0.2424,0.2719,0.2706,0.283,0.283,0.283,0.2829,0,0.1941,0.1959,0.1996,0.2073,0.2098,0.2159,0.2252,0.2307,0.2417,0.25,0.255,0.2638,0.2697,0.2729,0.2798,0.2726,0.2737,0.2694,0.245,0.2402,0.2527,0.2518,0.255,0.2545,0.2541,0.2537,0.2535,0,0.1933,0.1933,0.2008,0.2032,0.2071,0.2148,0.2183,0.2291,0.2345,0.2501,0.2535,0.262,0.2608,0.2624,0.2571,0.2541,0.2645,0.2304,0.2235,0.2523,0.2504,0.2502,0.2498,0.2019,0.2012,0.2007,0.2002,0,0.1902,0.1925,0.1966,0.2016,0.206,0.2105,0.2187,0.2193,0.2327,0.2366,0.2433,0.2442,0.2448,0.2287,0.2236,0.2201,0.2292,0.2183,0.259,0.2106,0.202,0.2002,0.2017,0.1952,0.1957,0.1961,0.1964,0.1966,0.1885,0.1907,0.1958,0.1981,0.2039,0.2069,0.2057,0.2109,0.2122,0.2138,0.2235,0.216,0.2138,0.1922,0.1851,0.1802,0.1961,0.1861,0.188,0.1905,0.1822,0.1733,0.1594,0.1597,0.1599,0.1601,0.1603,0,0.1824,0.1863,0.1915,0.1937,0.1956,0.2032,0.205,0.1972,0.1901,0.1918,0.1896,0.1679,0.153,0.1547,0.1374,0.1327,0.1349,0.1278,0.1301,0.1349,0.1393,0.1287,0.0915,0.0913,0.0911,0.091,0,0,0.1808,0.1805,0.1813,0.1811,0.1859,0.1828,0.1812,0.1712,0.1665,0.1495,0.1417,0.1464,0.1484,0.1195,0.1132,0.0999,0.1179,0.0953,0.1503,0.158,0.1622,0.1719,0.1607,0,0,0,0,0]},{"header":{"parameterUnit":"m.s-1","parameterCategory":2,"la1":30.2991,"la2":30.254,"lo1":-89.0895,"lo2":-89.0444,"dy":0.0017,"dx":0.0017,"nx":28,"ny":28,"refTime":"2023-09-12T03:00:00:Z","depth":"2","parameterNumber":3,"parameterNumberName":"V-component_of_CURRENTS"},"data":[0,0,0,0,0,0,0,0,0,0,0,0,0,0,0,0,0,0,0,0,0,0,0,0,0,0,0,0,0,0,0,0,0,0,0,0,0,0,0,0,0,0,0,0,0,0,0,0,0,0,0,0,0,0,0,0,0,0,0.0094,0.0094,0,0.0112,0.0113,0.0113,0.0119,0.0119,0.0119,0.0119,0.013,0.013,0.013,0,0,0,0,0,0,0,0,0,0,0,0,0,0.0063,0.0064,0.0094,0.0094,0.0095,0.0112,0.0113,0.0113,0.0119,0.0119,0.0119,0.0119,0.013,0.013,0.013,0,0,0,0,0,0,0,0,0,0,0,0,0,0.0078,0.0064,0.0094,0.01,0.0101,0.0112,0.0113,0.0113,0.0119,0.0119,0.0119,0.0119,0.013,0.013,0.013,0.0134,0,0,0.0132,0.0132,0,0,0,0,0,0,0,0,0.0077,0.0079,0.0099,0.01,0.0101,0.0114,0.0106,0.012,0.0119,0.0111,0.0119,0.0119,0.0124,0.0125,0.0128,0.0134,0.0135,0.0132,0.0132,0.0132,0.0132,0,0,0,0,0,0,0,0.0076,0.0078,0.0101,0.0099,0.0101,0.0102,0.0104,0.0108,0.0117,0.0112,0.0113,0.0116,0.0125,0.0127,0.0128,0.0135,0.0132,0.0132,0.0133,0.0133,0.0157,0.0157,0,0,0,0,0,0,0.0075,0.0077,0.01,0.0101,0.0089,0.0103,0.0105,0.0109,0.0117,0.0119,0.0116,0.0116,0.0127,0.0128,0.0128,0.0147,0.0132,0.0133,0.0133,0.0156,0.0157,0.0157,0,0,0,0,0,0,0.0075,0.0077,0.0099,0.009,0.0093,0.0103,0.0108,0.011,0.0115,0.012,0.0121,0.0121,0.0127,0.0128,0.0137,0.0147,0.0133,0.0133,0.0156,0.0156,0.0157,0.0175,0,0,0,0,0,0,0.0074,0.0077,0.0081,0.009,0.0094,0.0112,0.0108,0.011,0.0117,0.0118,0.0125,0.0125,0.0127,0.0136,0.0137,0.0148,0.0134,0.0155,0.0156,0.0157,0.0174,0.0177,0.0178,0,0,0,0,0,0.0073,0.008,0.0081,0.0084,0.0098,0.0112,0.0115,0.0121,0.0118,0.0125,0.0127,0.0125,0.0141,0.0137,0.0138,0.0149,0.0155,0.0156,0.0157,0.0173,0.0176,0.0178,0,0,0,0,0,0,0.0068,0.0082,0.0083,0.0094,0.0104,0.0114,0.0121,0.0122,0.0129,0.0129,0.013,0.0131,0.0144,0.0142,0.0137,0.0157,0.0148,0.0149,0.016,0.0163,0.0165,0.0191,0.0134,0,0,0,0,0,0.0069,0.0079,0.009,0.0099,0.0105,0.0112,0.0118,0.0123,0.013,0.0133,0.0135,0.0139,0.0148,0.0152,0.0158,0.0168,0.0171,0.0175,0.0177,0.0179,0.0201,0.0217,0.0222,0.016,0.016,0.016,0,0,0.007,0.0078,0.0085,0.0099,0.0107,0.0121,0.0116,0.0128,0.0135,0.0133,0.0142,0.0148,0.0152,0.0166,0.0171,0.0165,0.0193,0.018,0.0182,0.0203,0.0218,0.0224,0.023,0.016,0.016,0.016,0,0,0.0082,0.0085,0.01,0.011,0.0124,0.0128,0.0132,0.0143,0.0143,0.0153,0.0155,0.0174,0.0173,0.0191,0.0196,0.0215,0.0204,0.0204,0.0236,0.025,0.0256,0.0261,0.025,0.0254,0.0204,0.0204,0.0204,0,0.0083,0.0103,0.0106,0.0123,0.0135,0.0132,0.0152,0.015,0.0161,0.0172,0.0159,0.0195,0.0193,0.0231,0.0233,0.0223,0.0215,0.0225,0.0254,0.0259,0.0264,0.0252,0.0256,0.0205,0.0205,0.0205,0.0205,0,0.0109,0.0125,0.0134,0.0155,0.0165,0.0182,0.0183,0.0188,0.0185,0.0195,0.0227,0.0233,0.0264,0.0256,0.0248,0.0286,0.0262,0.0255,0.0249,0.0272,0.0257,0.0261,0.0207,0.0206,0.0206,0.0206,0,0,0.0118,0.0148,0.0152,0.0168,0.0186,0.0197,0.0206,0.0227,0.0247,0.0253,0.0298,0.0305,0.0323,0.0332,0.0329,0.0338,0.0349,0.0308,0.0309,0.03,0.0358,0.0331,0.0333,0.034,0.0341,0.0343,0.0325,0,0.0141,0.0179,0.0186,0.0219,0.0241,0.0242,0.0253,0.0268,0.0281,0.032,0.0338,0.0381,0.0344,0.0373,0.0374,0.0373,0.0365,0.0354,0.0337,0.0336,0.0313,0.0339,0.0349,0.0334,0.0329,0.0329,0.033,0,0.0168,0.0191,0.023,0.0259,0.0268,0.0281,0.0314,0.0326,0.0369,0.0381,0.0429,0.0458,0.0499,0.0459,0.0459,0.0449,0.0406,0.0387,0.0385,0.0366,0.0319,0.0316,0.0342,0.0337,0.0336,0.0336,0.0335,0,0.0185,0.0221,0.0253,0.0265,0.0296,0.0308,0.032,0.0353,0.0385,0.0444,0.0504,0.053,0.0581,0.0541,0.0506,0.0484,0.0493,0.0458,0.0387,0.0383,0.0395,0.0391,0.0446,0.0446,0.0446,0.0447,0.0447,0,0.0213,0.0239,0.0261,0.0284,0.0318,0.0328,0.0376,0.0386,0.0448,0.0532,0.0551,0.0637,0.0606,0.062,0.0543,0.0487,0.0518,0.0409,0.0389,0.0397,0.0393,0.0404,0.0399,0.0446,0.0446,0.0446,0.0446,0,0.0235,0.0251,0.0289,0.032,0.0331,0.0355,0.0412,0.046,0.0502,0.0623,0.0663,0.0731,0.0746,0.0691,0.0642,0.0553,0.0489,0.0449,0.0448,0.043,0.0352,0.0348,0.0376,0.0375,0.0375,0.0374,0.0374,0,0.0252,0.0276,0.0317,0.0341,0.0357,0.0397,0.0439,0.0478,0.0552,0.0695,0.0776,0.0836,0.0887,0.0788,0.0659,0.0522,0.0493,0.0421,0.0386,0.0373,0.0351,0.0348,0.0346,0.0395,0.0395,0.0395,0.0394,0,0.0287,0.0298,0.0327,0.0383,0.0425,0.0484,0.0555,0.0618,0.0711,0.082,0.0965,0.1016,0.0948,0.0837,0.0641,0.0543,0.0445,0.0411,0.0429,0.0408,0.0389,0.0367,0.0365,0.0393,0.0393,0.0393,0.0393,0.0393,0.0307,0.0327,0.037,0.0425,0.0486,0.0579,0.0637,0.0743,0.0871,0.1023,0.1066,0.1113,0.0993,0.0741,0.0593,0.0428,0.0437,0.0355,0.0357,0.0359,0.0362,0.0342,0.0336,0.0336,0.0336,0.0336,0.0336,0,0.0338,0.0367,0.0415,0.0488,0.0575,0.06,0.0729,0.0801,0.0966,0.1063,0.1155,0.1026,0.09,0.0741,0.0505,0.0361,0.0351,0.0302,0.0326,0.0329,0.0332,0.0333,0.03,0.0299,0.0298,0.0298,0,0,0.0353,0.0398,0.0426,0.0562,0.0623,0.0728,0.0801,0.0924,0.1006,0.1087,0.1096,0.1088,0.0927,0.0737,0.0566,0.0432,0.0404,0.0397,0.0443,0.0496,0.05,0.0383,0.0392,0,0,0,0,0]}],[{"header":{"parameterUnit":"m.s-1","parameterCategory":2,"la1":30.2991,"la2":30.254,"lo1":-89.0895,"lo2":-89.0444,"dy":0.0017,"dx":0.0017,"nx":28,"ny":28,"refTime":"2023-09-12T03:00:00:Z","depth":"4","parameterNumber":2,"parameterNumberName":"U-component_of_CURRENTS"},"data":[0,0,0,0,0,0,0,0,0,0,0,0,0,0,0,0,0,0,0,0,0,0,0,0,0,0,0,0,0,0,0,0,0,0,0,0,0,0,0,0,0,0,0,0,0,0,0,0,0,0,0,0,0,0,0,0,0,0,0.0946,0.0946,0,0.0969,0.0969,0.097,0.0998,0.0999,0.0999,0.1,0.1035,0.1036,0.1036,0,0,0,0,0,0,0,0,0,0,0,0,0,0.0948,0.0947,0.0946,0.0946,0.0946,0.0969,0.0969,0.097,0.0998,0.0999,0.0999,0.1,0.1035,0.1035,0.1036,0,0,0,0,0,0,0,0,0,0,0,0,0,0.0956,0.0947,0.0946,0.0964,0.0965,0.0969,0.0969,0.097,0.0998,0.0999,0.0999,0.1,0.1035,0.1035,0.1036,0.1027,0,0,0.1039,0.1039,0,0,0,0,0,0,0,0,0.0956,0.0956,0.0961,0.0962,0.0964,0.0982,0.0983,0.099,0.0998,0.0986,0.1,0.1,0.1018,0.102,0.1023,0.1029,0.103,0.1039,0.1039,0.1039,0.104,0,0,0,0,0,0,0,0.0955,0.0955,0.0955,0.0961,0.0963,0.0978,0.0979,0.0984,0.0998,0.0987,0.0989,0.0991,0.1019,0.1022,0.1024,0.1031,0.1039,0.1039,0.104,0.104,0.1117,0.1119,0,0,0,0,0,0,0.095,0.0955,0.0954,0.0956,0.0962,0.0977,0.0979,0.0975,0.0997,0.1001,0.0991,0.0993,0.102,0.1023,0.1025,0.1063,0.1039,0.104,0.1041,0.1116,0.1118,0.1119,0,0,0,0,0,0,0.095,0.095,0.0953,0.0956,0.0958,0.0976,0.0972,0.0975,0.1003,0.1,0.1005,0.1018,0.1021,0.1024,0.1042,0.1063,0.104,0.1041,0.1114,0.1116,0.1119,0.1108,0,0,0,0,0,0,0.095,0.0949,0.0958,0.0956,0.0957,0.0965,0.0971,0.0975,0.1002,0.1006,0.1024,0.1027,0.1021,0.1041,0.1043,0.1063,0.1042,0.1112,0.1115,0.1118,0.1107,0.111,0.1113,0,0,0,0,0,0.095,0.0948,0.0958,0.0959,0.0964,0.0965,0.0968,0.0983,0.1003,0.1012,0.1026,0.1028,0.1063,0.1042,0.1044,0.1065,0.111,0.1114,0.1118,0.1105,0.1109,0.1113,0,0,0,0,0,0,0.0955,0.0951,0.0961,0.096,0.097,0.0971,0.0983,0.0998,0.1017,0.103,0.1032,0.1035,0.1063,0.1071,0.1049,0.1102,0.1094,0.1098,0.1084,0.1088,0.1091,0.1106,0.1042,0,0,0,0,0,0.0959,0.0959,0.0961,0.0966,0.097,0.0985,0.0995,0.1007,0.1017,0.1028,0.1037,0.1059,0.1076,0.1087,0.11,0.1118,0.1141,0.1142,0.1146,0.1148,0.1165,0.1218,0.1227,0.1131,0.1131,0.1131,0,0,0.0964,0.0963,0.0965,0.0968,0.0979,0.0982,0.0993,0.1012,0.1019,0.1028,0.1047,0.1068,0.1086,0.1105,0.1121,0.1115,0.1185,0.1152,0.1154,0.1171,0.1223,0.1232,0.124,0.1134,0.1133,0.1133,0,0,0.0966,0.0974,0.0974,0.098,0.0996,0.1,0.1011,0.1024,0.1036,0.1055,0.1068,0.1106,0.1123,0.114,0.1152,0.1187,0.12,0.1198,0.1221,0.1271,0.1279,0.1286,0.1307,0.1316,0.1198,0.1198,0.1198,0,0.0979,0.097,0.0977,0.0979,0.0982,0.1009,0.1011,0.1023,0.1042,0.1057,0.1065,0.1134,0.1143,0.1183,0.1193,0.1194,0.1215,0.1194,0.1273,0.1281,0.1289,0.1309,0.1319,0.1198,0.1198,0.1198,0.1198,0,0.0971,0.0975,0.0976,0.0982,0.0989,0.0996,0.1007,0.1023,0.1049,0.1072,0.1128,0.1155,0.121,0.1212,0.1208,0.1272,0.1266,0.1267,0.1256,0.1297,0.1316,0.1327,0.1198,0.1198,0.1198,0.1198,0,0,0.0967,0.097,0.0974,0.097,0.099,0.0986,0.1004,0.1023,0.1046,0.1095,0.1145,0.1187,0.1244,0.1264,0.1283,0.1314,0.1371,0.1313,0.1316,0.1321,0.1466,0.1334,0.1333,0.1383,0.1385,0.1387,0.1448,0,0.0962,0.0957,0.0961,0.0958,0.0952,0.0972,0.098,0.101,0.1048,0.1103,0.1175,0.1234,0.1252,0.1291,0.1338,0.1367,0.1404,0.1353,0.1438,0.144,0.1307,0.1343,0.1395,0.1457,0.1459,0.1461,0.1462,0,0.0944,0.0943,0.094,0.0931,0.0932,0.0942,0.0964,0.0978,0.106,0.1093,0.1196,0.127,0.1362,0.1366,0.147,0.1438,0.1466,0.1476,0.1479,0.1372,0.1329,0.1415,0.1483,0.1481,0.148,0.1478,0.1477,0,0.0918,0.0916,0.0911,0.0912,0.0919,0.0926,0.0939,0.0992,0.1013,0.1118,0.1178,0.1299,0.1397,0.1451,0.1512,0.1502,0.16,0.1591,0.1499,0.1489,0.1593,0.1585,0.1669,0.1669,0.1669,0.1669,0.1669,0,0.0884,0.0882,0.0903,0.0899,0.0898,0.0913,0.0933,0.0956,0.103,0.1079,0.1202,0.1281,0.1429,0.1517,0.1534,0.1547,0.1636,0.1512,0.1503,0.1584,0.1575,0.1599,0.159,0.1671,0.167,0.167,0.167,0,0.0842,0.0866,0.0853,0.087,0.0886,0.0883,0.0923,0.0933,0.101,0.1091,0.1139,0.1309,0.1412,0.151,0.1604,0.1578,0.1581,0.1562,0.1632,0.1624,0.1431,0.1422,0.1473,0.1469,0.1466,0.1463,0.1461,0,0.0813,0.0807,0.0832,0.0827,0.0838,0.0852,0.0864,0.0921,0.0945,0.1087,0.1129,0.1293,0.1394,0.1436,0.1519,0.1541,0.1527,0.1517,0.1486,0.1429,0.1416,0.1411,0.1406,0.1455,0.1454,0.1453,0.1452,0,0.0749,0.0773,0.0762,0.076,0.0771,0.0773,0.0807,0.0823,0.0902,0.1006,0.1102,0.1179,0.1303,0.1386,0.1419,0.1424,0.1509,0.1481,0.1488,0.146,0.1408,0.1397,0.1396,0.1441,0.1442,0.1444,0.1444,0,0.0704,0.0674,0.0674,0.0668,0.0682,0.0681,0.0705,0.0746,0.0793,0.0963,0.0996,0.1151,0.1299,0.1325,0.1337,0.1344,0.1334,0.1286,0.1304,0.1318,0.1235,0.1145,0.1096,0,0,0,0,0,0.0649,0.0615,0.058,0.0565,0.0578,0.0604,0.0657,0.0688,0.081,0.0847,0.0914,0.101,0.1089,0.1169,0.115,0.1248,0.1317,0.1215,0.1264,0.1375,0.1389,0.1304,0,0,0,0,0,0,0.0607,0.0578,0.0552,0.0502,0.0485,0.0493,0.0532,0.0603,0.0633,0.0773,0.0834,0.094,0.1041,0.1105,0.1137,0.1153,0.1156,0.1303,0.1299,0.1368,0.138,0.1391,0.1309,0,0,0,0,0]},{"header":{"parameterUnit":"m.s-1","parameterCategory":2,"la1":30.2991,"la2":30.254,"lo1":-89.0895,"lo2":-89.0444,"dy":0.0017,"dx":0.0017,"nx":28,"ny":28,"refTime":"2023-09-12T03:00:00:Z","depth":"4","parameterNumber":3,"parameterNumberName":"V-component_of_CURRENTS"},"data":[0,0,0,0,0,0,0,0,0,0,0,0,0,0,0,0,0,0,0,0,0,0,0,0,0,0,0,0,0,0,0,0,0,0,0,0,0,0,0,0,0,0,0,0,0,0,0,0,0,0,0,0,0,0,0,0,0,0,0.0098,0.0098,0,0.0114,0.0115,0.0115,0.0119,0.0119,0.0119,0.0118,0.0139,0.014,0.0141,0,0,0,0,0,0,0,0,0,0,0,0,0,0.0068,0.0069,0.0098,0.0098,0.0098,0.0114,0.0115,0.0115,0.0119,0.0119,0.0119,0.0118,0.0139,0.014,0.0141,0,0,0,0,0,0,0,0,0,0,0,0,0,0.0083,0.0069,0.0098,0.0102,0.0103,0.0114,0.0115,0.0115,0.0119,0.0119,0.0119,0.0118,0.0139,0.014,0.0141,0.015,0,0,0.0144,0.0144,0,0,0,0,0,0,0,0,0.0082,0.0084,0.0101,0.0102,0.0102,0.0114,0.0112,0.0127,0.0119,0.0113,0.0118,0.0118,0.0132,0.0133,0.0137,0.0151,0.0152,0.0144,0.0145,0.0145,0.0145,0,0,0,0,0,0,0,0.0081,0.0083,0.0104,0.0101,0.0102,0.0103,0.0105,0.0115,0.0123,0.0113,0.0114,0.0115,0.0132,0.0136,0.0137,0.0153,0.0144,0.0145,0.0145,0.0146,0.0176,0.0176,0,0,0,0,0,0,0.0079,0.0082,0.0104,0.0105,0.0092,0.0104,0.0106,0.0111,0.0123,0.0124,0.0116,0.0116,0.0134,0.0136,0.0138,0.0158,0.0145,0.0146,0.0147,0.0175,0.0176,0.0176,0,0,0,0,0,0,0.0079,0.0081,0.0103,0.0094,0.0096,0.0104,0.011,0.0111,0.0116,0.0124,0.0126,0.0119,0.0134,0.0136,0.0151,0.0158,0.0146,0.0147,0.0175,0.0175,0.0176,0.0192,0,0,0,0,0,0,0.0078,0.0081,0.0084,0.0094,0.0097,0.0113,0.011,0.0112,0.0117,0.0117,0.0128,0.013,0.0134,0.015,0.0152,0.0159,0.0148,0.0175,0.0175,0.0176,0.0192,0.0193,0.0195,0,0,0,0,0,0.0077,0.0084,0.0084,0.0086,0.0101,0.0113,0.0115,0.012,0.0117,0.0122,0.013,0.0129,0.0153,0.0151,0.0154,0.0161,0.0175,0.0175,0.0176,0.0191,0.0193,0.0195,0,0,0,0,0,0,0.0071,0.0085,0.0085,0.0095,0.0104,0.0114,0.0119,0.0121,0.013,0.0131,0.0136,0.0139,0.0153,0.0154,0.0151,0.017,0.0162,0.0163,0.0173,0.0175,0.0176,0.0175,0.0149,0,0,0,0,0,0.0071,0.0081,0.0091,0.0099,0.0103,0.011,0.0115,0.0119,0.0129,0.0133,0.014,0.0147,0.0157,0.0164,0.0171,0.0185,0.0174,0.019,0.0191,0.0192,0.0192,0.0181,0.0181,0.0177,0.0177,0.0177,0,0,0.0071,0.008,0.0085,0.0099,0.0105,0.0118,0.0113,0.0123,0.0135,0.0134,0.0151,0.0154,0.0161,0.0176,0.0182,0.0179,0.0187,0.0193,0.0194,0.0193,0.0181,0.0182,0.0182,0.0178,0.0178,0.0177,0,0,0.008,0.0084,0.0097,0.0106,0.0117,0.0123,0.0126,0.0137,0.0142,0.0158,0.0159,0.0166,0.0182,0.0188,0.0194,0.0208,0.0195,0.0209,0.0218,0.0207,0.0207,0.0207,0.019,0.0188,0.021,0.021,0.021,0,0.0079,0.01,0.0102,0.0117,0.0128,0.0126,0.0144,0.0149,0.0163,0.0171,0.0165,0.0186,0.0188,0.021,0.021,0.0212,0.02,0.0212,0.0209,0.0209,0.0208,0.0191,0.0189,0.0211,0.0211,0.0211,0.0211,0,0.01,0.0117,0.0125,0.0145,0.0155,0.017,0.0178,0.0186,0.0188,0.0192,0.0209,0.0211,0.0225,0.0223,0.022,0.0224,0.0214,0.0211,0.0204,0.021,0.0191,0.0188,0.0212,0.0212,0.0212,0.0212,0,0,0.0103,0.0135,0.0138,0.016,0.0174,0.0189,0.0202,0.022,0.0236,0.0235,0.0257,0.0258,0.0253,0.0258,0.0256,0.0241,0.0222,0.0223,0.0222,0.0205,0.019,0.0189,0.0186,0.0217,0.0217,0.0217,0.0177,0,0.0122,0.0159,0.0168,0.0207,0.0229,0.0234,0.0255,0.0266,0.0267,0.0285,0.0278,0.0296,0.027,0.0281,0.026,0.0237,0.0217,0.0232,0.0187,0.0186,0.0184,0.0184,0.0216,0.0175,0.0174,0.0174,0.0173,0,0.0143,0.0169,0.0206,0.0254,0.0265,0.0287,0.0319,0.0338,0.0347,0.0349,0.0349,0.0342,0.0331,0.0308,0.0258,0.0269,0.0228,0.0199,0.0197,0.0189,0.0181,0.0168,0.0169,0.0169,0.0169,0.017,0.017,0,0.0154,0.0199,0.0233,0.0247,0.0292,0.0316,0.0343,0.0358,0.0385,0.0391,0.0404,0.0383,0.0391,0.0331,0.0265,0.0261,0.0202,0.0195,0.0154,0.0153,0.0158,0.0159,0.0153,0.0153,0.0153,0.0153,0.0153,0,0.0174,0.0206,0.0246,0.0269,0.0323,0.0346,0.0399,0.0413,0.0444,0.0476,0.0446,0.0459,0.0395,0.0353,0.0279,0.0209,0.0213,0.0153,0.0144,0.0166,0.0167,0.0156,0.0157,0.0151,0.0152,0.0152,0.0152,0,0.0182,0.0205,0.0257,0.0312,0.0332,0.0375,0.0447,0.0485,0.0501,0.0541,0.0547,0.0524,0.0466,0.0389,0.03,0.0242,0.0165,0.0138,0.0164,0.0157,0.0118,0.012,0.0091,0.0091,0.0091,0.0091,0.009,0,0.019,0.0214,0.0283,0.0322,0.0352,0.0417,0.0465,0.0509,0.0546,0.0574,0.0595,0.0561,0.0528,0.0403,0.0314,0.0181,0.016,0.0119,0.0115,0.0118,0.0112,0.0115,0.0117,0.009,0.009,0.009,0.009,0,0.0208,0.023,0.0272,0.0345,0.0407,0.0475,0.0543,0.0573,0.062,0.0636,0.0631,0.057,0.0513,0.0408,0.0313,0.0213,0.0145,0.0116,0.0115,0.0112,0.0116,0.0111,0.0114,0.0089,0.0089,0.0089,0.0089,0,0.022,0.0247,0.03,0.037,0.0442,0.0509,0.0551,0.0599,0.0638,0.0661,0.0655,0.0586,0.0554,0.0425,0.0329,0.024,0.0214,0.0177,0.0173,0.0173,0.0207,0.0226,0.0224,0,0,0,0,0,0.0229,0.0258,0.0321,0.0393,0.0466,0.0508,0.059,0.0625,0.0663,0.0664,0.0662,0.06,0.0477,0.0426,0.0337,0.0316,0.0195,0.0208,0.0148,0.0083,0.0084,0.011,0,0,0,0,0,0,0.0234,0.0284,0.0315,0.0399,0.0446,0.0527,0.058,0.0613,0.0616,0.0635,0.0572,0.0557,0.0438,0.0515,0.0323,0.0299,0.0247,0.0156,0.0154,0.0083,0.0084,0.0085,0.0111,0,0,0,0,0]}]]